TimePST,TemperatureF,Dew PointF,Humidity,Sea Level PressureIn,VisibilityMPH,Wind Direction,Wind SpeedMPH,Gust SpeedMPH,PrecipitationIn,Events,Conditions,WindDirDegrees,DateUTC
12:56 AM,47.8,32.0,54,29.80,10.0,South,6.9,-,N/A,,Overcast,170,2013-03-08 08:56:00
1:56 AM,48.9,32.0,52,29.78,10.0,South,5.8,-,N/A,,Scattered Clouds,180,2013-03-08 09:56:00
2:56 AM,48.9,32.9,54,29.75,10.0,SW,8.1,-,N/A,,Mostly Cloudy,220,2013-03-08 10:56:00
3:56 AM,48.9,32.9,54,29.74,10.0,SSW,5.8,-,N/A,,Partly Cloudy,200,2013-03-08 11:56:00
4:56 AM,48.9,34.0,56,29.73,10.0,Calm,Calm,-,0.00,,Scattered Clouds,0,2013-03-08 12:56:00
5:56 AM,50.0,36.0,59,29.74,10.0,South,5.8,-,0.00,,Overcast,190,2013-03-08 13:56:00
6:56 AM,48.9,34.9,58,29.74,10.0,SE,9.2,-,0.00,,Mostly Cloudy,140,2013-03-08 14:56:00
7:56 AM,47.8,37.9,69,29.75,10.0,South,5.8,-,0.00,Rain,Light Rain,180,2013-03-08 15:56:00
8:56 AM,46.9,39.9,77,29.76,10.0,South,10.4,-,0.00,Rain,Light Rain,170,2013-03-08 16:56:00
9:03 AM,46.4,39.2,76,29.75,10.0,South,10.4,-,0.00,Rain,Light Rain,170,2013-03-08 17:03:00
9:56 AM,48.9,37.9,66,29.75,10.0,SSE,13.8,-,0.00,Rain,Light Rain,150,2013-03-08 17:56:00
10:06 AM,48.2,37.4,66,29.75,10.0,South,12.7,-,0.00,Rain,Light Rain,170,2013-03-08 18:06:00
10:56 AM,50.9,36.9,59,29.74,10.0,South,11.5,-,0.00,,Overcast,180,2013-03-08 18:56:00
11:56 AM,46.9,37.9,71,29.73,10.0,SSW,32.2,36.8,0.00,Rain,Heavy Rain,200,2013-03-08 19:56:00
12:04 PM,42.8,37.4,81,29.72,1.5,SSW,38.0,44.9,0.03,Rain,Heavy Rain,210,2013-03-08 20:04:00
12:06 PM,42.8,37.4,81,29.72,1.2,SW,38.0,44.9,0.04,Rain,Heavy Rain,220,2013-03-08 20:06:00
12:12 PM,42.8,37.4,81,29.74,1.5,SW,31.1,40.3,0.04,Rain,Heavy Rain,220,2013-03-08 20:12:00
12:14 PM,42.8,37.4,81,29.74,2.0,SW,31.1,40.3,0.05,Rain,Heavy Rain,220,2013-03-08 20:14:00
12:21 PM,42.8,37.4,81,29.74,10.0,SW,29.9,38.0,0.05,Rain,Heavy Rain,220,2013-03-08 20:21:00
12:30 PM,42.8,37.4,81,29.75,10.0,SW,23.0,35.7,0.05,Rain,Heavy Rain,230,2013-03-08 20:30:00
12:56 PM,43.9,34.9,71,29.76,10.0,SW,11.5,-,0.05,,Overcast,220,2013-03-08 20:56:00
1:56 PM,45.9,34.9,66,29.73,10.0,SW,18.4,-,0.00,Rain,Heavy Rain,230,2013-03-08 21:56:00
2:56 PM,46.9,36.0,66,29.70,10.0,SSW,15.0,-,0.00,,Clear,200,2013-03-08 22:56:00
3:56 PM,45.9,32.0,58,29.73,10.0,SSW,19.6,-,N/A,,Partly Cloudy,210,2013-03-08 23:56:00
4:56 PM,45.0,32.9,63,29.75,10.0,SSW,20.7,-,N/A,,Mostly Cloudy,210,2013-03-09 00:56:00
5:56 PM,45.0,32.0,60,29.78,10.0,SW,13.8,-,N/A,,Clear,220,2013-03-09 01:56:00
6:56 PM,45.0,32.0,60,29.80,10.0,SW,15.0,-,N/A,,Partly Cloudy,230,2013-03-09 02:56:00
7:56 PM,43.0,34.9,73,29.83,10.0,SW,12.7,-,0.00,Rain,Light Rain,220,2013-03-09 03:56:00
8:56 PM,43.0,36.0,76,29.85,10.0,South,13.8,-,0.00,Rain,Heavy Rain,180,2013-03-09 04:56:00
9:20 PM,42.8,35.6,76,29.83,10.0,South,15.0,-,0.00,Rain,Heavy Rain,190,2013-03-09 05:20:00
9:33 PM,42.8,37.4,81,29.83,10.0,South,17.3,-,0.00,Rain,Heavy Rain,190,2013-03-09 05:33:00
9:56 PM,41.9,36.0,79,29.85,10.0,South,16.1,-,0.00,,Overcast,190,2013-03-09 05:56:00
10:56 PM,43.0,36.0,76,29.84,10.0,South,16.1,-,0.00,,Overcast,190,2013-03-09 06:56:00
11:56 PM,43.0,36.0,76,29.86,10.0,SSW,13.8,-,N/A,,Overcast,200,2013-03-09 07:56:00